Vertical_Velocity
-1 -1 -0 1 0 -0 -0 -0 0 -0 0 2 -0 -0 -1 -2 -3 -1 -1 0 1 0 0 1 1 -1 -3 -2 0 0 0 1 -0 -2 -3 -1 -1 -1 -3 -2 2 -0 -5 2 -0
-1 -1 -2 -1 1 1 1 -1 1 0 0 1 -0 -1 -0 -1 -1 -1 -1 1 -2 -1 0 2 1 2 -0 -2 -0 -0 2 -4 -0 -0 -2 -3 -3 -4 -2 -2 0 -0 -1 1 -2
-1 -0 0 -0 1 -1 -0 -1 -1 -0 0 2 1 1 -0 -1 -2 -1 -0 -1 0 -1 -0 -1 3 0 -0 -0 -2 -1 -0 2 -0 -3 2 3 2 -1 -1 -1 -2 -2 -3 2 -1
0 -2 -3 -0 1 1 -0 -1 -1 -0 -1 1 -0 1 2 -0 -2 -2 -1 -1 -0 -1 -0 -0 2 -0 0 -1 1 1 2 2 1 -5 -1 -1 2 3 1 2 -0 -0 -2 1 0
-0 -0 -1 -1 -0 0 0 -1 -2 -2 -1 -0 -1 0 1 1 -1 0 -2 -1 -1 -1 -1 -1 1 -0 -2 -1 1 1 1 -3 -0 -2 -6 2 -1 -0 3 2 -1 -1 -4 1 -1
1 -0 0 1 -0 -1 -1 -1 -1 -1 -1 -3 -2 -1 0 0 1 0 -0 -1 -1 -1 -0 -1 0 2 1 -0 -0 1 -0 2 2 3 -3 -6 -0 -1 4 0 -1 2 -4 -3 1
-1 -1 -0 1 0 -0 -0 1 -1 -0 -1 -3 -2 -1 -1 -0 -2 1 -0 1 -1 -0 -1 -2 -1 -0 5 -1 2 2 4 1 -1 5 -4 -7 3 -3 3 1 1 5 -4 -2 1
-1 -1 0 -1 1 1 -2 1 0 -0 0 -0 -1 -2 -3 1 0 -4 2 0 0 -1 0 -1 -1 -1 0 3 -0 3 -2 1 -3 3 -8 -5 6 2 3 -1 2 3 -7 0 -2
-0 -1 -1 0 1 -0 -3 2 -1 1 1 1 -2 -0 -2 -2 -0 1 -3 2 -1 0 0 0 -2 -1 -0 3 -1 2 0 -1 -1 1 1 -7 1 2 -0 -1 -0 5 0 1 1
2 1 -0 -0 1 -0 -3 5 1 2 2 2 1 -0 -4 -1 1 0 -0 -2 -1 -1 -1 1 -1 -1 -0 3 1 1 -1 -0 3 -0 -4 -2 3 4 -4 -7 -3 2 1 -5 -3
-1 2 1 -1 1 1 -2 3 1 0 1 2 3 -1 1 -2 1 2 -0 1 -3 -1 -2 -0 -2 -0 1 -3 -1 1 1 -4 7 -1 2 -4 5 2 1 -3 -2 4 1 -2 -3
2 1 1 0 2 -3 -1 0 2 2 2 1 -1 3 -2 -5 -3 3 -1 2 -0 -1 -0 -1 -3 3 -1 -3 -0 2 -0 2 5 -1 -3 7 2 4 2 3 4 -4 1 -2 -12
0 3 2 -1 3 2 -3 -1 1 1 -3 5 1 3 -2 -5 -2 3 -2 -0 0 -0 -0 1 -0 1 -2 -0 -1 -1 0 5 1 1 -2 -0 0 7 0 -1 2 1 -1 -4 -10
-1 1 3 -1 1 0 -2 1 1 -2 -7 4 0 -1 0 -1 -7 0 2 -1 0 2 -1 1 -2 -1 1 -2 -2 -2 -4 1 1 2 -1 1 -1 4 -3 -2 -2 -4 -4 -1 -5
0 1 1 -2 4 -4 2 3 3 4 -18 11 -1 1 -2 -4 13 -2 2 -5 2 3 -0 4 0 -4 -2 2 -2 3 -1 -2 -0 -0 -10 5 -2 -0 -0 -2 -3 -5 2 2 -4
-0 3 3 4 -2 0 0 1 4 5 -24 -1 -2 -4 0 -1 1 -1 -6 -3 6 -5 1 4 -2 -3 3 -1 -0 -0 0 -2 1 -2 -6 4 3 -13 1 2 2 -9 5 -6 -3
-0 3 6 6 -4 3 2 -0 1 -23 5 1 -1 -2 4 0 1 -1 2 -2 -1 -6 1 9 1 1 -0 0 2 -1 1 -1 1 -2 -0 1 -0 6 1 -3 -4 -1 -13 4 -4
2 3 9 -5 3 5 2 -0 -14 1 4 5 4 2 -1 1 1 -0 2 -1 0 -2 1 1 -3 3 1 2 6 1 0 1 2 -1 3 -3 -3 4 1 -4 2 -6 -7 -2 -5
1 3 1 -3 4 6 1 -15 -2 10 5 4 8 3 -3 2 0 -2 0 1 2 8 -3 2 1 4 3 -0 4 1 -4 4 2 -4 -1 1 1 -2 2 -4 -1 -1 -6 -3 1
2 1 0 1 5 2 -5 -6 -3 4 8 7 2 -2 3 -0 4 3 -0 -2 -5 4 3 5 4 0 -1 -2 -3 -4 2 4 -2 1 -3 -2 0 -4 -1 -3 -3 -1 -0 -3 -2
1 0 -2 1 3 -4 -6 1 5 4 7 3 4 1 3 1 4 3 3 2 -1 2 3 6 6 7 1 -2 1 -1 1 0 -2 4 -3 0 1 -1 -3 4 7 -2 3 -0 -1
-2 -1 1 3 -0 1 4 7 7 4 2 2 0 2 1 5 4 3 2 4 2 0 -2 5 4 -4 5 0 1 1 -3 -2 -2 -2 -4 -2 -1 -1 1 -4 -1 -0 0 0 -2
-1 1 2 1 1 0 0 1 -4 2 1 4 4 3 0 -1 8 2 1 4 2 2 0 4 0 4 10 -2 -5 -2 3 1 -4 1 -2 2 -1 0 0 -1 -5 3 -2 -2 -4
-0 0 5 0 1 1 3 1 8 -0 3 -2 9 -1 -2 1 4 2 1 2 5 2 0 6 4 1 -2 11 3 2 4 3 -0 0 -1 -2 -4 2 3 4 -1 -4 -2 -2 -1
1 1 5 -2 2 1 2 4 5 0 1 -2 3 -2 4 2 3 5 3 2 3 2 -1 2 5 4 -3 1 7 4 6 4 3 2 -2 -4 1 1 -4 1 1 -6 -2 -2 2
-1 -2 4 2 2 2 3 2 0 -7 0 -2 6 2 2 1 8 7 6 3 4 6 2 -2 -0 -1 0 -2 3 6 4 3 1 3 2 5 -2 -5 0 2 -3 0 -4 1 -1
1 -1 4 0 1 3 3 4 -0 -0 1 2 6 4 1 14 -1 3 4 6 4 1 3 4 -0 -1 -1 -2 -1 0 0 -1 -1 2 -0 -2 4 5 5 5 4 3 2 -1 -1
Height
5917 5920 5921 5924 5926 5927 5928 5928 5930 5930 5931 5931 5932 5932 5932 5933 5934 5934 5934 5936 5937 5938 5937 5937 5937 5938 5939 5940 5941 5942 5942 5943 5942 5941 5939 5938 5936 5933 5930 5929 5928 5925 5921 5920 5916
5916 5917 5919 5921 5923 5925 5926 5927 5928 5929 5930 5930 5931 5931 5932 5932 5932 5933 5933 5933 5935 5937 5937 5937 5937 5937 5937 5940 5942 5942 5942 5942 5943 5943 5941 5939 5938 5935 5933 5930 5929 5927 5924 5921 5918
5911 5913 5915 5917 5920 5922 5923 5924 5925 5927 5928 5929 5929 5930 5930 5930 5932 5932 5931 5933 5933 5934 5935 5936 5937 5937 5937 5939 5941 5942 5942 5943 5942 5943 5942 5941 5941 5938 5935 5933 5930 5928 5926 5923 5920
5906 5909 5911 5913 5915 5917 5919 5920 5922 5923 5924 5927 5928 5928 5928 5929 5931 5931 5931 5932 5932 5932 5932 5935 5936 5935 5936 5938 5939 5940 5942 5943 5943 5942 5944 5942 5942 5941 5938 5935 5932 5929 5927 5924 5921
5901 5903 5905 5908 5910 5913 5915 5916 5918 5920 5921 5923 5925 5925 5926 5927 5928 5928 5929 5930 5930 5931 5930 5931 5933 5933 5934 5936 5938 5938 5940 5941 5941 5941 5943 5942 5941 5940 5939 5936 5933 5930 5927 5925 5922
5894 5897 5900 5902 5905 5907 5909 5911 5914 5916 5917 5919 5921 5923 5923 5925 5924 5924 5926 5927 5928 5929 5928 5929 5930 5932 5932 5934 5934 5936 5937 5939 5940 5940 5940 5942 5940 5939 5939 5936 5935 5932 5928 5925 5922
5886 5889 5892 5895 5898 5900 5902 5905 5908 5910 5912 5913 5916 5918 5919 5922 5920 5922 5923 5924 5925 5926 5925 5926 5927 5929 5931 5931 5931 5932 5934 5937 5939 5938 5938 5940 5939 5937 5936 5936 5935 5933 5930 5925 5922
5878 5881 5884 5887 5890 5892 5895 5898 5902 5904 5907 5909 5911 5912 5915 5917 5916 5918 5920 5921 5921 5922 5923 5924 5925 5926 5926 5928 5928 5929 5931 5934 5935 5934 5934 5937 5938 5934 5935 5934 5934 5933 5930 5925 5922
5868 5872 5874 5878 5881 5884 5887 5891 5895 5898 5901 5903 5905 5907 5910 5914 5914 5913 5915 5916 5918 5918 5920 5921 5922 5923 5923 5924 5925 5926 5927 5929 5932 5932 5931 5933 5934 5932 5932 5932 5931 5932 5929 5925 5921
5859 5862 5865 5868 5872 5875 5878 5882 5887 5891 5894 5897 5900 5903 5903 5909 5909 5909 5909 5912 5913 5914 5916 5917 5919 5919 5919 5920 5921 5920 5922 5927 5930 5930 5930 5930 5930 5929 5928 5930 5929 5928 5926 5923 5919
5849 5852 5855 5859 5863 5865 5869 5874 5879 5882 5886 5891 5894 5895 5897 5900 5904 5905 5904 5906 5908 5909 5911 5912 5915 5915 5914 5915 5916 5916 5917 5922 5926 5926 5928 5928 5928 5927 5926 5926 5927 5927 5923 5920 5918
5837 5841 5844 5848 5852 5856 5860 5863 5867 5872 5877 5881 5885 5889 5890 5892 5897 5900 5900 5901 5903 5904 5905 5908 5910 5910 5909 5910 5912 5913 5913 5918 5922 5923 5924 5925 5925 5924 5924 5925 5924 5923 5921 5919 5919
5826 5829 5833 5837 5841 5845 5850 5854 5857 5861 5865 5873 5877 5882 5885 5885 5889 5894 5895 5895 5897 5899 5901 5902 5906 5904 5905 5907 5908 5909 5911 5914 5917 5918 5919 5920 5921 5921 5922 5922 5921 5921 5919 5917 5917
5816 5818 5822 5825 5831 5834 5840 5845 5848 5851 5855 5864 5868 5873 5877 5878 5880 5887 5887 5891 5891 5894 5895 5897 5899 5900 5901 5904 5903 5906 5907 5909 5911 5914 5916 5916 5918 5917 5917 5919 5918 5918 5916 5915 5915
5805 5808 5811 5814 5818 5823 5830 5834 5838 5844 5844 5855 5859 5862 5867 5871 5875 5878 5881 5881 5885 5889 5890 5893 5893 5894 5897 5899 5899 5903 5903 5904 5907 5908 5911 5912 5914 5914 5914 5915 5914 5913 5914 5912 5910
5795 5798 5800 5804 5807 5813 5818 5823 5828 5833 5837 5844 5849 5853 5857 5862 5865 5868 5873 5874 5878 5880 5883 5887 5888 5889 5893 5893 5895 5898 5899 5900 5902 5904 5907 5908 5909 5910 5911 5910 5910 5910 5910 5907 5905
5786 5789 5791 5793 5798 5803 5808 5813 5817 5822 5835 5838 5840 5846 5851 5854 5857 5859 5864 5867 5870 5874 5878 5884 5885 5885 5887 5889 5892 5894 5895 5898 5900 5901 5903 5903 5902 5904 5905 5905 5907 5907 5905 5904 5902
5776 5779 5781 5784 5790 5793 5799 5803 5808 5820 5826 5829 5834 5838 5842 5847 5850 5852 5856 5859 5863 5868 5873 5875 5880 5881 5884 5886 5888 5889 5892 5894 5895 5898 5898 5898 5897 5898 5899 5901 5904 5904 5903 5902 5899
5768 5770 5773 5777 5782 5785 5790 5793 5803 5812 5817 5822 5827 5830 5835 5840 5844 5846 5850 5855 5858 5863 5866 5869 5873 5876 5877 5879 5882 5885 5887 5890 5891 5892 5893 5894 5894 5893 5894 5896 5899 5900 5899 5899 5897
5761 5763 5766 5769 5773 5777 5782 5788 5795 5801 5807 5813 5818 5823 5829 5834 5838 5841 5843 5848 5852 5856 5859 5863 5867 5869 5870 5873 5876 5878 5883 5885 5886 5887 5888 5889 5889 5890 5892 5893 5895 5896 5896 5896 5894
5756 5756 5758 5762 5766 5771 5775 5781 5786 5793 5797 5802 5810 5816 5822 5827 5831 5835 5838 5842 5845 5850 5854 5858 5861 5866 5866 5868 5872 5873 5875 5879 5881 5882 5884 5886 5887 5888 5889 5891 5892 5892 5891 5891 5890
5748 5749 5751 5755 5760 5765 5770 5774 5780 5784 5788 5795 5801 5808 5814 5820 5825 5829 5833 5836 5839 5843 5847 5851 5855 5859 5861 5863 5865 5866 5869 5872 5874 5878 5880 5881 5883 5884 5885 5887 5888 5888 5888 5887 5886
5743 5743 5746 5749 5753 5758 5762 5766 5770 5775 5780 5786 5792 5799 5806 5813 5819 5822 5827 5831 5834 5838 5841 5845 5848 5853 5856 5858 5860 5862 5865 5868 5870 5872 5875 5877 5879 5881 5881 5882 5884 5884 5884 5883 5882
5737 5738 5741 5743 5748 5752 5756 5761 5765 5769 5775 5779 5786 5792 5799 5805 5810 5815 5820 5825 5829 5832 5835 5839 5842 5847 5852 5854 5857 5858 5862 5864 5866 5868 5870 5872 5874 5877 5878 5878 5879 5879 5879 5879 5877
5732 5733 5734 5738 5742 5746 5751 5756 5759 5763 5768 5773 5779 5786 5791 5797 5803 5809 5813 5818 5823 5826 5829 5834 5837 5841 5845 5849 5851 5854 5857 5859 5861 5863 5865 5867 5869 5870 5870 5872 5873 5873 5873 5873 5873
5727 5728 5729 5733 5737 5742 5747 5751 5754 5757 5762 5766 5773 5777 5783 5789 5796 5802 5807 5812 5817 5821 5825 5827 5831 5835 5839 5843 5845 5848 5850 5853 5855 5857 5859 5861 5861 5864 5866 5868 5869 5869 5868 5868 5867
5723 5724 5724 5728 5733 5738 5743 5746 5749 5753 5757 5760 5766 5770 5777 5783 5787 5793 5800 5806 5811 5815 5818 5821 5825 5829 5833 5836 5839 5841 5843 5846 5848 5850 5853 5855 5858 5860 5861 5862 5862 5863 5863 5863 5861